DECAYED

STARLINK-2260, 47996 (Decayed)

Orbit data source: Space-Track

STARLINK-2260, 47996 was a payload satellite owned by SpaceX/Seattle (US) in LEO that was launched on Wed, 24 Mar 2021 UTC via an FALCON 9 launch vehicle from the Air Force Eastern Test Range (AFETR). Payload-class satellites include a variety of spacecraft equipped with specific instruments for various scientific and technological missions. These include communications satellites like Starlink; space stations such as the ISS; scientific satellites like the Hubble; Earth observation satellites from companies like Planet Labs, Umbra, and HawkEye 360; GPS; miniature CubeSats for education and research; and military/defense satellites.

Not visible in the next 10 days
Identifier
47996, 2021-024V
Orbit
Decayed
Country
Flag of USUS
Related business
Manufacturer
SpaceX/Seattle
Mission
Decayed Commercial Communications
Bus & Motor
STARLINK, Unknown motor
Mass
260 kg wet, ~248 kg dry
Launch date (UTC)
2021-03-24 (5 years ago)
Launch vehicle
FALCON 9
Launch site
Air Force Eastern Test Range (AFETR)
Object type
Payload
Rocket body
Debris
Shape & HBR
Box + 1 Pan, 10.1 m
Radar Cross Section
13.562 m², Large (>1 m²)

Expand to show TLE details & history
Last TLE update: 1 year ago

TLE from 1 year ago
0 STARLINK-2260
1 47996U 21024V   25065.91367100  .18361780  12438-4  42362-3 0  9995
2 47996  53.0106   5.6822 0006415 212.0624 258.3073 16.46011684221154
Epoch: 2025-03-06T21:55Z
TLE epoch observation values (Epoch: 2025-03-06T21:55:41.174Z)
Latitude
48.67078°
Longitude
-6.50741°
Altitude
156.165 km
Speed
7.818 km/s
True Right ascension
08h 29m 10s
True Declination
48° 29' 04"
Sunlit
Object was in full shadow at epoch
Visualization orbit readout
Latitude
Unknown
Longitude
Unknown
Altitude
Unknown
Speed
Unknown
Apparent Right ascension
Unknown
Apparent Declination
Unknown
Sunlit
N/A
Visualization observer readout
Local Sidereal Time
04:58:32
Azimuth
Unknown
Elevation
Unknown
Doppler factor
Unknown
Orbital elements
Apogee altitude
154.341 km
Perigee altitude
145.966 km
Semi-major axis
6,528.29 km
Eccentricity
0.00064
Inclination
53.0106°
RAAN
5.6822°
Arg. of periapsis
212.0624°
True anomaly
258.23533°
Mean anomaly
258.3073°
Eccentric anomaly
258.27131°
Mean motion
4.11475 °/min
Orbital period
87.49 mins
BSTAR
0.00042362
Loading maneuver chart data...
Computing Atmospheric mass density...

Documentation

Showing up to 5 results
|